• In Netherlands
  • List of Countries
  • For 7 days
  • Water Temperature
  • Satellite Maps
  • Weather Map
  • Weather Widgets
  • user-avatar
    Login

    Hourly Weather Nashavar

    Today, 28 June, Wednesday

    Time Temperature Precipitation Wind Pressure Humidity
    00:00 +37°C° 0.4 mm 2 mps 723 mmHg 44%
    01:00 +35°C° 0.4 mm 1 mps 723 mmHg 46%
    02:00 +34°C° 0.4 mm 1 mps 723 mmHg 48%
    03:00 +34°C° 0.5 mm 1 mps 723 mmHg 51%
    04:00 +33°C° 0.5 mm 1 mps 723 mmHg 53%
    05:00 +32°C° 0 mm 1 mps 723 mmHg 56%
    06:00 +33°C° 0.1 mm 1 mps 723 mmHg 53%
    07:00 +34°C° 0.1 mm 1 mps 723 mmHg 50%
    08:00 +35°C° 0.1 mm 1 mps 723 mmHg 47%
    09:00 +36°C° 0 mm 1 mps 723 mmHg 43%
    10:00 +37°C° 0 mm 1 mps 723 mmHg 39%
    11:00 +39°C° 0 mm 1 mps 723 mmHg 36%
    12:00 +40°C° 0 mm 2 mps 723 mmHg 33%
    13:00 +42°C° 0 mm 3 mps 722 mmHg 30%
    14:00 +43°C° 0 mm 3 mps 722 mmHg 28%
    15:00 +43°C° 0 mm 3 mps 722 mmHg 27%
    16:00 +44°C° 0 mm 3 mps 722 mmHg 26%
    17:00 +44°C° 0 mm 3 mps 722 mmHg 26%
    18:00 +43°C° 0.3 mm 3 mps 722 mmHg 29%
    19:00 +40°C° 0.3 mm 3 mps 722 mmHg 31%
    20:00 +39°C° 0.3 mm 3 mps 722 mmHg 34%
    21:00 +38°C° 0.6 mm 3 mps 722 mmHg 38%
    22:00 +37°C° 0.6 mm 3 mps 723 mmHg 41%
    23:00 +36°C° 0.6 mm 3 mps 723 mmHg 44%

    Tomorrow, 29 June, Thursday

    Time Temperature Precipitation Wind Pressure Humidity
    00:00 +36°C° 0.6 mm 3 mps 723 mmHg 47%
    01:00 +35°C° 0.6 mm 2 mps 723 mmHg 50%
    02:00 +34°C° 0.6 mm 2 mps 723 mmHg 53%
    03:00 +32°C° 0.3 mm 2 mps 723 mmHg 55%
    04:00 +32°C° 0.3 mm 1 mps 723 mmHg 57%
    05:00 +31°C° 0.3 mm 1 mps 723 mmHg 59%
    06:00 +32°C° 0 mm 1 mps 723 mmHg 55%
    07:00 +33°C° 0 mm 1 mps 723 mmHg 51%
    08:00 +34°C° 0 mm 1 mps 723 mmHg 46%
    09:00 +35°C° 0 mm 1 mps 723 mmHg 42%
    10:00 +36°C° 0 mm 1 mps 723 mmHg 38%
    11:00 +39°C° 0 mm 1 mps 723 mmHg 33%
    12:00 +40°C° 0 mm 1 mps 722 mmHg 31%
    13:00 +40°C° 0 mm 1 mps 722 mmHg 29%
    14:00 +41°C° 0 mm 1 mps 721 mmHg 26%
    15:00 +42°C° 0 mm 1 mps 721 mmHg 25%
    16:00 +42°C° 0 mm 2 mps 721 mmHg 25%
    17:00 +42°C° 0 mm 2 mps 720 mmHg 24%
    18:00 +41°C° 0.1 mm 2 mps 720 mmHg 27%
    19:00 +40°C° 0.1 mm 2 mps 720 mmHg 29%
    20:00 +39°C° 0.1 mm 2 mps 720 mmHg 32%
    21:00 +37°C° 0.1 mm 1 mps 721 mmHg 34%
    22:00 +36°C° 0.1 mm 1 mps 721 mmHg 37%
    23:00 +36°C° 0.1 mm 1 mps 721 mmHg 40%

    Day after tomorrow, 30 June, Friday

    Time Temperature Precipitation Wind Pressure Humidity
    00:00 +35°C° 0.1 mm 1 mps 721 mmHg 41%
    01:00 +34°C° 0.1 mm 1 mps 721 mmHg 43%
    02:00 +34°C° 0.1 mm 1 mps 721 mmHg 44%
    03:00 +33°C° 0.1 mm 1 mps 721 mmHg 46%
    04:00 +33°C° 0.1 mm 1 mps 721 mmHg 48%
    05:00 +32°C° 0.1 mm 1 mps 720 mmHg 49%
    06:00 +33°C° 0.1 mm 1 mps 721 mmHg 44%
    07:00 +34°C° 0.1 mm 1 mps 721 mmHg 40%
    08:00 +35°C° 0.1 mm 1 mps 721 mmHg 35%
    09:00 +37°C° 0 mm 1 mps 721 mmHg 31%
    10:00 +39°C° 0 mm 1 mps 720 mmHg 28%
    11:00 +40°C° 0 mm 1 mps 720 mmHg 24%
    12:00 +41°C° 0 mm 1 mps 720 mmHg 22%
    13:00 +42°C° 0 mm 1 mps 719 mmHg 20%
    14:00 +43°C° 0 mm 1 mps 719 mmHg 18%
    15:00 +43°C° 0 mm 2 mps 719 mmHg 18%
    16:00 +43°C° 0 mm 2 mps 718 mmHg 18%
    17:00 +43°C° 0 mm 2 mps 718 mmHg 18%
    18:00 +42°C° 0 mm 2 mps 718 mmHg 20%
    19:00 +41°C° 0 mm 2 mps 718 mmHg 23%
    20:00 +40°C° 0 mm 2 mps 719 mmHg 25%
    21:00 +39°C° 0 mm 1 mps 719 mmHg 27%
    22:00 +37°C° 0 mm 1 mps 719 mmHg 29%
    23:00 +36°C° 0 mm 1 mps 720 mmHg 31%

    1 July, Saturday

    Time Temperature Precipitation Wind Pressure Humidity
    00:00 +36°C° 0 mm 1 mps 720 mmHg 33%
    01:00 +35°C° 0 mm 1 mps 720 mmHg 34%
    02:00 +34°C° 0 mm 1 mps 719 mmHg 36%
    03:00 +34°C° 0 mm 1 mps 720 mmHg 37%
    04:00 +33°C° 0 mm 1 mps 720 mmHg 39%
    05:00 +33°C° 0 mm 1 mps 720 mmHg 40%
    06:00 +34°C° 0 mm 1 mps 720 mmHg 37%
    07:00 +35°C° 0 mm 1 mps 720 mmHg 34%
    08:00 +37°C° 0 mm 2 mps 720 mmHg 31%
    09:00 +38°C° 0 mm 2 mps 720 mmHg 27%
    10:00 +40°C° 0 mm 2 mps 720 mmHg 24%
    11:00 +41°C° 0 mm 1 mps 720 mmHg 21%
    12:00 +42°C° 0 mm 2 mps 720 mmHg 19%
    13:00 +43°C° 0 mm 2 mps 719 mmHg 17%
    14:00 +45°C° 0 mm 2 mps 719 mmHg 14%
    15:00 +45°C° 0 mm 2 mps 718 mmHg 15%
    16:00 +45°C° 0 mm 2 mps 718 mmHg 15%
    17:00 +46°C° 0 mm 2 mps 718 mmHg 15%
    18:00 +43°C° 0 mm 2 mps 718 mmHg 17%
    19:00 +42°C° 0 mm 2 mps 718 mmHg 20%
    20:00 +40°C° 0 mm 2 mps 719 mmHg 22%
    21:00 +40°C° 0 mm 2 mps 719 mmHg 23%
    22:00 +39°C° 0 mm 2 mps 719 mmHg 24%
    23:00 +39°C° 0 mm 2 mps 720 mmHg 25%

    2 July, Sunday

    Time Temperature Precipitation Wind Pressure Humidity
    00:00 +37°C° 0.1 mm 1 mps 720 mmHg 26%
    01:00 +36°C° 0.1 mm 1 mps 719 mmHg 28%
    02:00 +35°C° 0.1 mm 1 mps 719 mmHg 30%
    03:00 +35°C° 0.1 mm 1 mps 719 mmHg 30%
    04:00 +34°C° 0.1 mm 1 mps 719 mmHg 30%
    05:00 +33°C° 0.1 mm 1 mps 719 mmHg 31%
    06:00 +35°C° 0 mm 1 mps 719 mmHg 27%
    07:00 +37°C° 0 mm 2 mps 720 mmHg 24%
    08:00 +38°C° 0 mm 2 mps 720 mmHg 20%
    09:00 +40°C° 0 mm 2 mps 720 mmHg 18%
    10:00 +41°C° 0 mm 2 mps 719 mmHg 15%
    11:00 +42°C° 0 mm 2 mps 719 mmHg 12%
    12:00 +43°C° 0 mm 2 mps 719 mmHg 12%
    13:00 +45°C° 0 mm 2 mps 718 mmHg 11%
    14:00 +46°C° 0 mm 2 mps 718 mmHg 10%
    15:00 +46°C° 0 mm 2 mps 718 mmHg 10%
    16:00 +46°C° 0 mm 2 mps 717 mmHg 11%
    17:00 +47°C° 0 mm 2 mps 717 mmHg 12%
    18:00 +45°C° 0 mm 2 mps 717 mmHg 14%
    19:00 +43°C° 0 mm 2 mps 717 mmHg 16%
    20:00 +41°C° 0 mm 2 mps 718 mmHg 17%
    21:00 +40°C° 0 mm 2 mps 718 mmHg 17%
    22:00 +40°C° 0 mm 2 mps 718 mmHg 17%
    23:00 +39°C° 0 mm 1 mps 718 mmHg 17%

    3 July, Monday

    Time Temperature Precipitation Wind Pressure Humidity
    00:00 +37°C° 0.2 mm 1 mps 718 mmHg 19%
    01:00 +36°C° 0.2 mm 1 mps 718 mmHg 21%
    02:00 +35°C° 0.2 mm 1 mps 718 mmHg 23%
    03:00 +35°C° 0 mm 1 mps 719 mmHg 24%
    04:00 +34°C° 0 mm 1 mps 719 mmHg 25%
    05:00 +34°C° 0 mm 1 mps 719 mmHg 25%
    06:00 +35°C° 0 mm 1 mps 719 mmHg 23%
    07:00 +36°C° 0 mm 1 mps 719 mmHg 20%
    08:00 +39°C° 0 mm 1 mps 720 mmHg 18%
    09:00 +40°C° 0 mm 2 mps 720 mmHg 16%
    10:00 +41°C° 0 mm 2 mps 719 mmHg 14%
    11:00 +42°C° 0 mm 2 mps 719 mmHg 13%
    12:00 +43°C° 0 mm 2 mps 719 mmHg 12%
    13:00 +45°C° 0 mm 2 mps 718 mmHg 11%
    14:00 +45°C° 0 mm 1 mps 718 mmHg 10%
    15:00 +46°C° 0 mm 2 mps 718 mmHg 11%
    16:00 +46°C° 0 mm 2 mps 717 mmHg 11%
    17:00 +47°C° 0 mm 2 mps 717 mmHg 12%
    18:00 +45°C° 0 mm 2 mps 717 mmHg 14%
    19:00 +42°C° 0 mm 2 mps 718 mmHg 17%
    20:00 +41°C° 0 mm 1 mps 718 mmHg 19%
    21:00 +40°C° 0 mm 1 mps 718 mmHg 19%
    22:00 +39°C° 0 mm 1 mps 718 mmHg 20%
    23:00 +39°C° 0 mm 1 mps 719 mmHg 20%
    Show more